Content
SEND FEEDBACK

Daily
Averages
Monthly
Summary
United States of America

ASHEVILLE, NORTH CAROLINA


Home > North America > United States > North Carolina
Elevation: 2240 feet     Latitude: 35 36N     Longitude: 082 32W

WEATHER
 
SELECT A DAY
Number of Records: 231,211;   Date Range: 1/1/95 - 12/21/14
 
SHARE

PRINT THIS DATA

[ ← Previous Day ]
WEATHER ALMANAC - OCTOBER 15, 2013
[ Next Day → ]
[ °C ]   °F
Weather ElementAverageHighLow
Temperature58.8 °F64 °F (2:54 pm)55.9 °F (11:54 pm)
Dewpoint55.4 °F57.2 °F (3:09 am)53.1 °F (10:54 am)
Humidity89.1 %100 % (3:09 am)73 % (2:54 pm)
Barometer30.16 in30.24 in (12:39 am)30.07 in (4:54 pm)
Wind Speed1.2 mph6.9 mph (3:54 pm)
Weather ElementAverage
Visibility9.3 mi
Wind DirectionNNE (30.6 °)

Weather ElementTotal
Precipitation0.05 in
Heating Degree Days5.1 (Base 65)
Growing Degree Days10 (Base 50)
Averaged from 33 records on October 15, 2013
WEATHER CONDITIONS BREAKOUT
WIND DIRECTION BREAKOUT
WEATHER BY HOUR - OCTOBER 15, 2013
[ °C ]   °F
Local TimeTemperatureDewpointHumidityBarometerVisibilityWind DirectionWind SpeedGust SpeedPrecipitationEventsConditions
12:39 AM57.2 °F55.4 °F94 %30.24 in10.0 miCalmOvercast
12:54 AM57.9 °F55.9 °F93 %30.19 in10.0 miCalmOvercast
1:54 AM59.0 °F57.0 °F93 %30.18 in9.0 miCalm0.00 inRainLight Rain
2:23 AM59.0 °F55.4 °F88 %30.23 in6.0 miCalm0.00 inRainLight Rain
2:54 AM57.9 °F55.9 °F93 %30.18 in5.0 miCalm0.01 inRainLight Rain
3:09 AM57.2 °F57.2 °F100 %30.23 in10.0 miCalm0.01 inOvercast
3:20 AM57.2 °F57.2 °F100 %30.22 in10.0 miCalm0.01 inOvercast
3:24 AM57.2 °F57.2 °F100 %30.22 in9.0 miCalm0.01 inOvercast
3:54 AM57.9 °F55.9 °F93 %30.17 in7.0 miCalm0.01 inRainLight Rain
4:18 AM57.2 °F55.4 °F94 %30.21 in8.0 miCalm0.00 inOvercast
4:54 AM57.0 °F55.9 °F96 %30.15 in10.0 miCalm0.00 inOvercast
5:21 AM57.2 °F55.4 °F94 %30.21 in8.0 miCalmOvercast
5:38 AM57.2 °F55.4 °F94 %30.21 in9.0 miCalmOvercast
5:54 AM57.9 °F55.9 °F93 %30.16 in8.0 miCalmOvercast
6:02 AM57.2 °F55.4 °F94 %30.20 in8.0 miCalmOvercast
6:54 AM57.0 °F55.0 °F93 %30.15 in10.0 miCalmOvercast
7:54 AM57.0 °F54.0 °F89 %30.17 in10.0 miCalmOvercast
8:54 AM57.0 °F54.0 °F89 %30.18 in10.0 miCalmOvercast
9:54 AM57.9 °F54.0 °F87 %30.17 in10.0 miCalmOvercast
10:54 AM59.0 °F53.1 °F81 %30.17 in10.0 miCalmOvercast
11:54 AM59.0 °F53.1 °F81 %30.17 in10.0 miSouth (170°)4.6 mphOvercast
12:54 PM62.1 °F54.0 °F75 %30.15 in10.0 miVariable3.5 mphOvercast
1:54 PM62.1 °F55.0 °F78 %30.11 in10.0 miSouth (190°)4.6 mphOvercast
2:54 PM64.0 °F55.0 °F73 %30.09 in10.0 miVariable4.6 mphScattered Clouds
3:54 PM64.0 °F55.0 °F73 %30.08 in10.0 miSouth (170°)6.9 mphPartly Cloudy
4:54 PM63.0 °F55.0 °F75 %30.07 in10.0 miVariable3.5 mphClear
5:54 PM63.0 °F55.9 °F78 %30.07 in10.0 miESE (120°)3.5 mphClear
6:54 PM61.0 °F55.9 °F83 %30.08 in10.0 miSouth (170°)5.8 mphClear
7:54 PM60.1 °F55.9 °F86 %30.09 in10.0 miSouth (190°)3.5 mphClear
8:54 PM59.0 °F55.9 °F90 %30.10 in10.0 miCalmClear
9:54 PM57.0 °F55.9 °F96 %30.10 in10.0 miCalmClear
10:54 PM57.0 °F55.9 °F96 %30.12 in10.0 miCalmClear
11:54 PM55.9 °F55.0 °F97 %30.10 in10.0 miCalmClear
Hourly data recorded from KAVL, located miles away from Asheville, North Carolina







STORIES FROM OUR PARTNERS